Total_Precipitation_Accumulation
0.00 0.01 0.03 0.05 0.01 0.00 0.00 0.00 0.00 0.00 0.00 0.00 0.00 0.00 0.00 0.04 0.04 0.04 0.00 0.00 0.00 0.00 0.02 0.04 0.12 0.14 0.13 0.11 0.11 0.06 0.03 0.06 0.09 0.07 0.09 0.13 0.07 0.03 0.02 0.04 0.04 0.05 0.04 0.09 0.10 0.13 0.20 0.31 0.10
0.00 0.04 0.13 0.10 0.02 0.00 0.00 0.00 0.00 0.00 0.00 0.00 0.00 0.00 0.00 0.03 0.01 0.01 0.01 0.00 0.00 0.00 0.02 0.04 0.08 0.10 0.12 0.13 0.09 0.05 0.04 0.08 0.09 0.07 0.10 0.10 0.07 0.05 0.02 0.01 0.02 0.02 0.03 0.10 0.12 0.16 0.22 0.10 0.04
0.03 0.13 0.24 0.09 0.01 0.00 0.00 0.00 0.00 0.00 0.00 0.00 0.00 0.00 0.01 0.07 0.03 0.06 0.04 0.03 0.00 0.01 0.01 0.04 0.06 0.09 0.13 0.10 0.08 0.05 0.07 0.10 0.09 0.09 0.09 0.12 0.12 0.07 0.01 0.01 0.01 0.03 0.04 0.07 0.15 0.18 0.08 0.01 0.00
0.11 0.42 0.48 0.16 0.01 0.00 0.00 0.00 0.00 0.00 0.00 0.00 0.01 0.00 0.04 0.06 0.05 0.08 0.03 0.04 0.01 0.01 0.01 0.06 0.06 0.10 0.11 0.09 0.08 0.08 0.08 0.08 0.07 0.07 0.07 0.09 0.12 0.09 0.02 0.01 0.01 0.04 0.04 0.07 0.11 0.05 0.01 0.00 0.00
0.36 0.62 0.71 0.37 0.03 0.00 0.00 0.00 0.00 0.00 0.00 0.00 0.00 0.01 0.06 0.06 0.05 0.08 0.17 0.04 0.00 0.01 0.02 0.06 0.08 0.07 0.08 0.07 0.06 0.07 0.09 0.08 0.07 0.05 0.05 0.06 0.11 0.14 0.03 0.01 0.01 0.03 0.04 0.04 0.02 0.00 0.00 0.00 0.00
0.67 0.62 0.80 0.71 0.09 0.00 0.00 0.00 0.00 0.00 0.00 0.00 0.00 0.04 0.08 0.03 0.05 0.29 0.38 0.11 0.00 0.01 0.03 0.05 0.09 0.10 0.10 0.07 0.06 0.07 0.06 0.08 0.09 0.06 0.03 0.03 0.06 0.12 0.05 0.02 0.03 0.03 0.02 0.00 0.00 0.00 0.00 0.00 0.00
0.49 0.50 0.55 0.37 0.16 0.00 0.00 0.00 0.00 0.00 0.00 0.00 0.00 0.06 0.15 0.15 0.17 0.44 0.36 0.07 0.03 0.01 0.03 0.05 0.08 0.09 0.09 0.09 0.06 0.05 0.05 0.07 0.06 0.03 0.02 0.01 0.02 0.06 0.06 0.03 0.05 0.02 0.02 0.02 0.02 0.02 0.02 0.02 0.01
0.34 0.82 0.34 0.29 0.08 0.04 0.01 0.00 0.00 0.00 0.00 0.00 0.01 0.04 0.11 0.13 0.22 0.42 0.41 0.10 0.07 0.03 0.03 0.03 0.07 0.09 0.10 0.09 0.06 0.04 0.03 0.04 0.04 0.02 0.01 0.00 0.00 0.02 0.05 0.03 0.05 0.02 0.01 0.01 0.02 0.02 0.02 0.02 0.02
0.40 0.63 0.63 0.14 0.07 0.06 0.01 0.00 0.00 0.00 0.00 0.00 0.00 0.01 0.03 0.05 0.16 0.24 0.27 0.26 0.16 0.06 0.06 0.05 0.05 0.06 0.08 0.06 0.04 0.03 0.03 0.02 0.01 0.00 0.00 0.00 0.00 0.00 0.01 0.02 0.04 0.03 0.01 0.00 0.01 0.01 0.01 0.01 0.01
0.38 0.24 0.38 0.07 0.04 0.07 0.09 0.07 0.03 0.00 0.00 0.02 0.11 0.19 0.22 0.23 0.41 0.40 0.26 0.29 0.24 0.11 0.12 0.07 0.06 0.05 0.07 0.04 0.03 0.03 0.01 0.00 0.00 0.00 0.00 0.00 0.00 0.00 0.00 0.00 0.03 0.03 0.01 0.00 0.00 0.00 0.00 0.00 0.00
0.21 0.13 0.03 0.07 0.13 0.17 0.25 0.14 0.03 0.01 0.00 0.00 0.04 0.22 0.40 0.56 0.62 0.60 0.50 0.37 0.27 0.11 0.07 0.06 0.05 0.05 0.04 0.02 0.02 0.02 0.01 0.00 0.00 0.00 0.00 0.00 0.00 0.00 0.00 0.00 0.02 0.02 0.00 0.00 0.00 0.00 0.00 0.00 0.00
0.13 0.05 0.01 0.15 0.43 0.33 0.46 0.18 0.10 0.05 0.01 0.05 0.12 0.13 0.18 0.29 0.35 0.45 0.45 0.49 0.34 0.14 0.09 0.06 0.08 0.06 0.04 0.02 0.01 0.01 0.01 0.00 0.00 0.00 0.00 0.00 0.00 0.00 0.00 0.00 0.00 0.01 0.00 0.00 0.00 0.00 0.00 0.00 0.00
0.10 0.04 0.02 0.15 0.77 0.52 0.39 0.35 0.10 0.05 0.03 0.09 0.25 0.46 0.39 0.37 0.46 0.58 0.82 0.83 0.58 0.16 0.09 0.08 0.06 0.09 0.06 0.04 0.01 0.00 0.01 0.00 0.00 0.00 0.00 0.00 0.00 0.00 0.00 0.00 0.00 0.00 0.00 0.00 0.00 0.00 0.00 0.00 0.00
0.12 0.08 0.06 0.10 0.56 0.62 0.54 0.45 0.13 0.08 0.12 0.10 0.23 0.26 0.36 0.37 0.38 0.35 0.48 0.55 0.48 0.50 0.27 0.10 0.10 0.07 0.05 0.07 0.07 0.02 0.00 0.00 0.00 0.00 0.00 0.00 0.00 0.00 0.00 0.00 0.00 0.00 0.00 0.00 0.00 0.00 0.00 0.00 0.00
0.11 0.13 0.22 0.12 0.17 0.54 0.69 0.55 0.27 0.10 0.12 0.10 0.09 0.17 0.29 0.39 0.45 0.30 0.50 0.55 0.50 0.44 0.44 0.22 0.20 0.17 0.07 0.16 0.19 0.12 0.05 0.03 0.01 0.00 0.00 0.00 0.00 0.00 0.00 0.00 0.00 0.00 0.00 0.00 0.00 0.00 0.00 0.00 0.00
0.37 0.30 0.26 0.13 0.08 0.19 0.75 0.73 0.29 0.14 0.21 0.15 0.05 0.06 0.12 0.22 0.37 0.49 0.43 0.56 0.70 0.65 0.63 0.49 0.32 0.22 0.25 0.14 0.27 0.23 0.11 0.05 0.03 0.01 0.00 0.00 0.00 0.00 0.00 0.00 0.00 0.00 0.00 0.00 0.00 0.00 0.00 0.00 0.00
0.62 0.34 0.06 0.09 0.10 0.11 0.37 0.60 0.34 0.25 0.27 0.16 0.09 0.03 0.06 0.07 0.17 0.31 0.37 0.42 0.48 0.36 0.46 0.45 0.26 0.21 0.32 0.40 0.46 0.38 0.26 0.09 0.09 0.04 0.01 0.01 0.00 0.00 0.00 0.00 0.00 0.00 0.00 0.00 0.00 0.00 0.00 0.00 0.00
0.30 0.17 0.04 0.05 0.09 0.10 0.09 0.27 0.47 0.39 0.28 0.20 0.13 0.03 0.04 0.02 0.04 0.17 0.29 0.39 0.56 0.46 0.36 0.53 0.51 0.42 0.46 0.66 0.73 0.62 0.37 0.17 0.15 0.16 0.08 0.12 0.03 0.04 0.00 0.00 0.00 0.00 0.00 0.00 0.00 0.00 0.00 0.00 0.00
0.20 0.07 0.07 0.03 0.09 0.08 0.02 0.03 0.28 0.42 0.34 0.30 0.21 0.06 0.02 0.01 0.00 0.04 0.19 0.23 0.26 0.44 0.50 0.42 0.69 0.84 0.73 0.53 0.41 0.48 0.43 0.56 0.46 0.45 0.41 0.29 0.14 0.13 0.06 0.01 0.00 0.00 0.00 0.00 0.00 0.00 0.00 0.00 0.00
0.41 0.14 0.09 0.06 0.08 0.14 0.05 0.02 0.09 0.28 0.30 0.30 0.25 0.07 0.01 0.02 0.00 0.00 0.06 0.22 0.26 0.29 0.31 0.45 0.38 0.36 0.39 0.61 0.64 0.66 0.86 0.65 0.91 0.97 0.62 0.62 0.52 0.55 0.25 0.10 0.11 0.04 0.01 0.01 0.00 0.01 0.01 0.01 0.01
0.41 0.12 0.08 0.06 0.12 0.14 0.09 0.11 0.13 0.17 0.22 0.16 0.24 0.16 0.01 0.01 0.00 0.00 0.01 0.07 0.16 0.24 0.21 0.16 0.22 0.23 0.41 0.65 1.17 1.19 1.14 0.91 0.86 0.67 0.78 1.05 1.24 1.16 0.81 0.61 0.48 0.34 0.21 0.29 0.26 0.31 0.28 0.22 0.20
0.64 0.13 0.07 0.13 0.16 0.32 0.16 0.16 0.07 0.06 0.11 0.10 0.11 0.18 0.05 0.00 0.00 0.00 0.00 0.02 0.04 0.05 0.13 0.23 0.12 0.06 0.19 0.53 0.64 0.58 0.52 0.80 0.66 0.90 0.98 0.79 0.89 1.11 1.38 1.34 1.13 0.94 0.70 0.63 0.81 0.70 0.74 0.77 0.64
0.81 0.24 0.11 0.23 0.27 0.23 0.24 0.13 0.01 0.01 0.03 0.04 0.01 0.06 0.07 0.01 0.00 0.00 0.00 0.00 0.01 0.03 0.09 0.12 0.17 0.16 0.20 0.37 0.50 0.45 0.41 0.43 0.47 0.50 0.53 0.70 0.75 0.86 0.93 0.98 1.05 0.99 0.92 0.95 1.10 1.18 1.00 0.78 0.64
0.86 0.53 0.46 0.51 0.66 0.92 0.15 0.11 0.02 0.00 0.00 0.00 0.00 0.00 0.03 0.01 0.00 0.00 0.00 0.00 0.01 0.03 0.07 0.09 0.11 0.09 0.25 0.27 0.33 0.28 0.18 0.22 0.40 0.60 0.73 0.72 0.79 0.75 0.73 0.82 0.83 0.91 0.81 0.76 0.85 0.93 0.84 0.72 0.62
1.74 1.49 1.94 1.86 1.31 0.54 0.10 0.08 0.05 0.00 0.00 0.00 0.00 0.00 0.00 0.00 0.00 0.00 0.00 0.00 0.00 0.02 0.03 0.09 0.09 0.15 0.26 0.22 0.13 0.11 0.16 0.19 0.26 0.37 0.40 0.40 0.35 0.29 0.34 0.42 0.51 0.53 0.54 0.48 0.41 0.40 0.40 0.42 0.46
1.49 1.37 1.27 0.82 0.38 0.09 0.06 0.13 0.01 0.00 0.00 0.00 0.00 0.00 0.00 0.00 0.00 0.00 0.00 0.00 0.00 0.01 0.04 0.07 0.07 0.10 0.13 0.09 0.05 0.03 0.06 0.10 0.15 0.13 0.10 0.16 0.16 0.18 0.20 0.22 0.28 0.31 0.33 0.34 0.31 0.31 0.34 0.36 0.42
1.35 0.86 0.72 0.46 0.25 0.25 0.05 0.01 0.00 0.00 0.00 0.00 0.00 0.00 0.00 0.00 0.00 0.00 0.00 0.00 0.00 0.00 0.01 0.01 0.02 0.04 0.06 0.06 0.04 0.02 0.01 0.05 0.06 0.06 0.08 0.10 0.10 0.10 0.13 0.16 0.15 0.19 0.21 0.22 0.24 0.27 0.27 0.30 0.34
0.96 0.38 0.57 1.12 0.66 0.33 0.08 0.00 0.00 0.00 0.00 0.00 0.00 0.00 0.00 0.00 0.00 0.00 0.00 0.00 0.00 0.00 0.00 0.00 0.01 0.02 0.03 0.05 0.03 0.02 0.03 0.06 0.05 0.05 0.06 0.07 0.07 0.07 0.10 0.10 0.11 0.10 0.10 0.10 0.10 0.12 0.13 0.20 0.24
0.82 0.81 0.51 0.52 0.35 0.30 0.20 0.01 0.00 0.00 0.00 0.00 0.00 0.00 0.00 0.00 0.00 0.00 0.00 0.00 0.00 0.00 0.00 0.00 0.00 0.01 0.02 0.02 0.02 0.04 0.03 0.04 0.05 0.06 0.06 0.04 0.03 0.04 0.03 0.03 0.04 0.04 0.03 0.02 0.02 0.03 0.04 0.07 0.12
0.39 0.34 0.34 0.84 0.46 0.42 0.38 0.10 0.00 0.01 0.01 0.00 0.01 0.02 0.01 0.00 0.00 0.00 0.00 0.00 0.00 0.00 0.00 0.00 0.02 0.02 0.01 0.02 0.03 0.04 0.03 0.04 0.04 0.06 0.06 0.05 0.05 0.03 0.02 0.01 0.01 0.01 0.01 0.00 0.01 0.01 0.02 0.03 0.03